This demonstration page uses our WeatherBlox Daily Observations layout. Learn more.

Left ArrowRight Arrow

41.86663, -103.66717

Hourly Observations for February 18, 2019

Temp ( °F °C ) Dew Point ( °F °C ) Humidity (%) Winds ( mph kmh ) Pressure ( in mb ) Visibility ( mi km ) Precip ( " mm )
12:53 am 00:53 Clear -1 -18.3 -6 -21.1 79 79 WNW 5 7 30.45 1031 10 16 N/A
1:53 am 01:53 Mostly Clear -1 -18.3 -6 -21.1 79 79 N 3 6 30.45 1031 10 16 N/A
2:53 am 02:53 Clear -2 -18.9 -7 -21.7 79 79 SW 5 7 30.45 1031 10 16 N/A
3:53 am 03:53 Clear N/A -6 -21.1 76 76 N N/A 30.46 1031 10 16 N/A
4:53 am 04:53 Clear -3 -19.4 -7 -21.7 82 82 NNW 3 6 30.48 1032 10 16 N/A
5:53 am 05:53 Mostly Cloudy -3 -19.4 -7 -21.7 82 82 N 5 7 30.50 1033 10 16 N/A
6:53 am 06:53 Mostly Cloudy -3 -19.4 -7 -21.7 82 82 N N/A 30.53 1034 10 16 N/A
7:53 am 07:53 Cloudy N/A -5 -20.6 79 79 N N/A 30.55 1035 10 16 N/A
8:53 am 08:53 Cloudy 3 -16.1 -3 -19.4 76 76 N N/A 30.55 1035 10 16 N/A
9:53 am 09:53 Cloudy 5 -15 -3 -19.4 69 69 N N/A 30.54 1034 10 16 N/A
10:53 am 10:53 Cloudy 8 -13.3 -1 -18.3 66 66 VRB 5 7 30.52 1034 10 16 N/A
11:53 am 11:53 Sunny 14 -10 N/A 53 53 N N/A 30.48 1032 10 16 N/A
12:53 pm 12:53 Sunny 14 -10 2 -16.7 58 58 VRB 6 9 30.44 1031 10 16 N/A
1:53 pm 13:53 Sunny 17 -8.3 3 -16.1 54 54 ESE 7 11 30.40 1030 10 16 N/A
2:53 pm 14:53 Mostly Sunny 19 -7.2 4 -15.6 51 51 E 13 20 30.37 1028 10 16 N/A
3:53 pm 15:53 Cloudy 18 -7.8 5 -15 57 57 ESE 10 17 30.37 1028 10 16 N/A
4:53 pm 16:53 Cloudy 17 -8.3 5 -15 59 59 ESE 16 26 30.38 1029 10 16 N/A
5:53 pm 17:53 Cloudy 16 -8.9 6 -14.4 65 65 ESE 17 28 30.39 1029 10 16 N/A
6:53 pm 18:53 Cloudy 13 -10.6 6 -14.4 74 74 ESE 17 28 30.42 1030 10 16 N/A
7:53 pm 19:53 Cloudy 11 -11.7 5 -15 77 77 ESE 14 22 30.42 1030 10 16 N/A
8:53 pm 20:53 Cloudy 12 -11.1 7 -13.9 80 80 ESE 12 19 30.40 1030 10 16 N/A
9:16 pm 21:16 Cloudy 12 -11.1 8 -13.3 84 84 ESE 12 19 30.49 1033 10 16 N/A
9:28 pm 21:28 Cloudy 12 -11 9 -13 85 85 ESE 17 28 30.49 1032 9 14 N/A
9:53 pm 21:53 Cloudy 12 -11.1 8 -13.3 84 84 ESE 18 30 30.39 1029 9 14 N/A
10:53 pm 22:53 Cloudy 11 -11.7 8 -13.3 88 88 ESE 17 28 30.36 1028 10 16 N/A
11:53 pm 23:53 Cloudy 9 -12.8 7 -13.9 92 92 ESE 15 24 30.33 1027 10 16 N/A

Powered by AerisWeather